Regional Weather Roundup
Issued by NWS

Home | Current Version | Previous Version | Text Only | Print | Product List | Glossary Off
Versions: 1 2 3 4 5 6 7 8 9 10 11 12 13 14 15 16 17 18 19 20 21 22 23 24 25 26 27 28

000
ASUS45 KBOI 290110
RWRID

IDAHO REGIONAL WEATHER ROUNDUP
NATIONAL WEATHER SERVICE BOISE ID
700 PM MDT THU APR 28 2016

NOTE: "FAIR" INDICATES FEW OR NO CLOUDS BELOW 12000 FEET
WITH NO SIGNIFICANT WEATHER AND/OR OBSTRUCTIONS TO VISIBILITY

IDZ012-014-290200-
SOUTHWEST IDAHO


CITY           SKY/WX    TMP DP  RH WIND       PRES   REMARKS
BOISE          SUNNY     65  30  27 NW25G33   29.80R
CALDWELL       SUNNY     65  33  30 NW15      29.82S
MOUNTAIN HOME  SUNNY     65  32  29 NW28      29.78R
$$

IDZ016-017-290200-
SOUTHCENTRAL IDAHO


CITY           SKY/WX    TMP DP  RH WIND       PRES   REMARKS
BURLEY         MOSUNNY   58  34  40 W7        29.80R
JEROME         CLOUDY    52  40  63 N21       29.81R
TWIN FALLS     MOSUNNY   58  36  43 S8        29.81S
$$

IDZ019>023-290200-
SOUTHEAST IDAHO


CITY           SKY/WX    TMP DP  RH WIND       PRES   REMARKS
IDAHO FALLS    CLOUDY    57  27  31 N16       29.82R
POCATELLO      PTSUNNY   57  29  34 N10       29.81R
REXBURG        CLOUDY    53  26  35 N14G20    29.82R
$$

IDZ006-010-011-018-031-032-290200-
CENTRAL IDAHO MOUNTAINS


CITY           SKY/WX    TMP DP  RH WIND       PRES   REMARKS
MCCALL         CLOUDY    46  31  55 N10       29.90R
HAILEY         PTSUNNY   46  39  76 SE8       29.87R
STANLEY          N/A     47  24  40 NW5       29.88S
SALMON         CLOUDY    46  34  61 E13       29.93R
CHALLIS        CLOUDY    47  31  53 N16       29.88R
$$

IDZ002-004-006-007-026-290200-
NORTHERN IDAHO


CITY           SKY/WX    TMP DP  RH WIND       PRES   REMARKS
LEWISTON       CLOUDY    59  43  55 CALM      29.93S
LOWELL           N/A     56  45  66 CALM      29.92S
COEUR D`ALENE  PTSUNNY   61  34  36 N12       29.92S
MULLAN PASS    CLOUDY    36  30  79 CALM      29.98S
$$




USA.gov is the U.S. government's official web portal to all federal, state and local government web resources and services.